| time (UTC) | temp C | wind direction | speed KPH | gust KPH | rain 1hr cm | rain 24hr cm | rain mn cm | humidity % | barometer mb |
| 20260507191627 | 15 | 332 | 8.0 | 14.5 | 0.00 | 0.00 | 0.00 | 36 | |
| 20260507191125 | 15 | 228 | 6.4 | 16.1 | 0.00 | 0.00 | 0.00 | 34 | |
| 20260507190622 | 15 | 352 | 9.7 | 11.3 | 0.00 | 0.00 | 0.00 | 34 | |
| 20260507190120 | 15 | 171 | 9.7 | 17.7 | 0.00 | 0.00 | 0.00 | 32 | |
| 20260507185619 | 15 | 339 | 8.0 | 12.9 | 0.00 | 0.00 | 0.00 | 36 | |
| 20260507185115 | 15 | 306 | 6.4 | 11.3 | 0.00 | 0.00 | 0.00 | 38 | |
| 20260507184613 | 15 | 132 | 4.8 | 16.1 | 0.00 | 0.00 | 0.00 | 37 | |
| 20260507184111 | 14 | 259 | 3.2 | 22.5 | 0.00 | 0.00 | 0.00 | 40 | |
| 20260507183607 | 14 | 351 | 8.0 | 11.3 | 0.00 | 0.00 | 0.00 | 37 | |
| 20260507183104 | 13 | 267 | 3.2 | 16.1 | 0.00 | 0.00 | 0.00 | 41 | |
| 20260507182600 | 13 | 260 | 3.2 | 14.5 | 0.00 | 0.00 | 0.00 | 42 | |
| 20260507182055 | 13 | 234 | 3.2 | 9.7 | 0.00 | 0.00 | 0.00 | 40 | |
| 20260507181552 | 13 | 295 | 4.8 | 11.3 | 0.00 | 0.00 | 0.00 | 39 | |
| 20260507181048 | 13 | 348 | 6.4 | 16.1 | 0.00 | 0.00 | 0.00 | 39 | |
| 20260507180545 | 13 | 314 | 8.0 | 14.5 | 0.00 | 0.00 | 0.00 | 41 | |
| 20260507180042 | 13 | 287 | 4.8 | 11.3 | 0.00 | 0.00 | 0.00 | 41 | |
| 20260507175538 | 13 | 258 | 12.9 | 16.1 | 0.00 | 0.00 | 0.00 | 40 | |
| 20260507175037 | 13 | 302 | 4.8 | 12.9 | 0.00 | 0.00 | 0.00 | 42 | |
| 20260507174533 | 12 | 281 | 6.4 | 12.9 | 0.00 | 0.00 | 0.00 | 42 | |
| 20260507174031 | 12 | 337 | 8.0 | 14.5 | 0.00 | 0.00 | 0.00 | 42 | |
| 20260507173527 | 13 | 278 | 3.2 | 14.5 | 0.00 | 0.00 | 0.00 | 42 | |
| 20260507173025 | 13 | 278 | 4.8 | 11.3 | 0.00 | 0.00 | 0.00 | 43 | |
| 20260507172520 | 13 | 313 | 6.4 | 9.7 | 0.00 | 0.00 | 0.00 | 41 | |
| 20260507172017 | 13 | 261 | 3.2 | 8.0 | 0.00 | 0.00 | 0.00 | 42 | |
| 20260507171513 | 13 | 333 | 4.8 | 9.7 | 0.00 | 0.00 | 0.00 | 41 | |
| 20260507171011 | 13 | 288 | 4.8 | 12.9 | 0.00 | 0.00 | 0.00 | 42 | |
| 20260507170507 | 14 | 257 | 3.2 | 9.7 | 0.00 | 0.00 | 0.00 | 41 | |
| 20260507170004 | 12 | 259 | 1.6 | 9.7 | 0.00 | 0.00 | 0.00 | 44 | |
| 20260507165459 | 13 | 279 | 3.2 | 9.7 | 0.00 | 0.00 | 0.00 | 42 | |
| 20260507164955 | 13 | 277 | 3.2 | 9.7 | 0.00 | 0.00 | 0.00 | 41 | |
| 20260507164452 | 13 | 257 | 1.6 | 9.7 | 0.00 | 0.00 | 0.00 | 43 | |
| 20260507163949 | 13 | 250 | 3.2 | 4.8 | 0.00 | 0.00 | 0.00 | 42 | |
| 20260507163447 | 13 | 255 | 4.8 | 12.9 | 0.00 | 0.00 | 0.00 | 42 | |
| 20260507162944 | 13 | 318 | 3.2 | 4.8 | 0.00 | 0.00 | 0.00 | 41 | |
| 20260507162439 | 12 | 326 | 3.2 | 8.0 | 0.00 | 0.00 | 0.00 | 43 | |
| 20260507161936 | 13 | 343 | 4.8 | 11.3 | 0.00 | 0.00 | 0.00 | 42 | |
| 20260507161432 | 13 | 259 | 11.3 | 14.5 | 0.00 | 0.00 | 0.00 | 42 | |
| 20260507160929 | 15 | 301 | 6.4 | 9.7 | 0.00 | 0.00 | 0.00 | 38 | |
| 20260507160425 | 15 | 278 | 6.4 | 16.1 | 0.00 | 0.00 | 0.00 | 40 | |
| 20260507155921 | 15 | 225 | 4.8 | 14.5 | 0.00 | 0.00 | 0.00 | 37 | |
| 20260507155417 | 14 | 254 | 4.8 | 8.0 | 0.00 | 0.00 | 0.00 | 40 | |
| 20260507154915 | 15 | 250 | 1.6 | 9.7 | 0.00 | 0.00 | 0.00 | 39 | |
| 20260507154411 | 15 | 245 | 3.2 | 9.7 | 0.00 | 0.00 | 0.00 | 38 | |
| 20260507153909 | 13 | 272 | 4.8 | 11.3 | 0.00 | 0.00 | 0.00 | 43 | |
| 20260507153405 | 15 | 316 | 6.4 | 9.7 | 0.00 | 0.00 | 0.00 | 41 | |
| 20260507152902 | 14 | 315 | 1.6 | 9.7 | 0.00 | 0.00 | 0.00 | 41 | |
| 20260507152358 | 14 | 237 | 4.8 | 9.7 | 0.00 | 0.00 | 0.00 | 40 | |
| 20260507151854 | 14 | 275 | 4.8 | 11.3 | 0.00 | 0.00 | 0.00 | 39 | |
| 20260507151350 | 14 | 345 | 4.8 | 9.7 | 0.00 | 0.00 | 0.00 | 40 | |
| 20260507150847 | 13 | 246 | 1.6 | 11.3 | 0.00 | 0.00 | 0.00 | 42 | |
| 20260507150344 | 13 | 269 | 4.8 | 9.7 | 0.00 | 0.00 | 0.00 | 40 | |
| 20260507145840 | 13 | 242 | 6.4 | 9.7 | 0.00 | 0.00 | 0.00 | 41 | |
| 20260507145337 | 13 | 346 | 6.4 | 11.3 | 0.00 | 0.00 | 0.00 | 41 | |
| 20260507144834 | 13 | 243 | 1.6 | 4.8 | 0.00 | 0.00 | 0.00 | 40 | |
| 20260507144331 | 13 | 222 | 1.6 | 9.7 | 0.00 | 0.00 | 0.00 | 44 | |
| 20260507143827 | 13 | 248 | 4.8 | 8.0 | 0.00 | 0.00 | 0.00 | 39 | |
| 20260507143320 | 13 | 277 | 4.8 | 4.8 | 0.00 | 0.00 | 0.00 | 40 | |
| 20260507142815 | 13 | 245 | 1.6 | 3.2 | 0.00 | 0.00 | 0.00 | 41 | |
| 20260507142312 | 13 | 274 | 4.8 | 9.7 | 0.00 | 0.00 | 0.00 | 39 | |
| 20260507141809 | 13 | 222 | 1.6 | 1.6 | 0.00 | 0.00 | 0.00 | 42 | |
| 20260507141306 | 13 | 244 | 1.6 | 8.0 | 0.00 | 0.00 | 0.00 | 42 | |
| 20260507140802 | 13 | 281 | 4.8 | 4.8 | 0.00 | 0.00 | 0.00 | 45 | |
| 20260507140259 | 12 | 262 | 0.0 | 3.2 | 0.00 | 0.00 | 0.00 | 44 | |
| 20260507135756 | 11 | 294 | 1.6 | 9.7 | 0.00 | 0.00 | 0.00 | 49 | |
| 20260507135253 | 13 | 6 | 4.8 | 4.8 | 0.00 | 0.00 | 0.00 | 44 | |
| 20260507134750 | 12 | 239 | 0.0 | 3.2 | 0.00 | 0.00 | 0.00 | 43 | |
| 20260507134247 | 12 | 192 | 3.2 | 4.8 | 0.00 | 0.00 | 0.00 | 45 | |
| 20260507133742 | 12 | 244 | 1.6 | 3.2 | 0.00 | 0.00 | 0.00 | 45 | |
| 20260507133239 | 11 | 261 | 3.2 | 4.8 | 0.00 | 0.00 | 0.00 | 46 | |
| 20260507132737 | 12 | 231 | 1.6 | 4.8 | 0.00 | 0.00 | 0.00 | 45 | |
| 20260507132233 | 12 | 246 | 1.6 | 3.2 | 0.00 | 0.00 | 0.00 | 46 | |
| 20260507131730 | 12 | 226 | 1.6 | 3.2 | 0.00 | 0.00 | 0.00 | 44 | |
| 20260507131227 | 11 | 233 | 1.6 | 3.2 | 0.00 | 0.00 | 0.00 | 48 | |
| 20260507130724 | 11 | 272 | 1.6 | 1.6 | 0.00 | 0.00 | 0.00 | 48 | |
| 20260507130222 | 11 | 285 | 3.2 | 8.0 | 0.00 | 0.00 | 0.00 | 47 | |
| 20260507125720 | 11 | 152 | 0.0 | 3.2 | 0.00 | 0.00 | 0.00 | 48 | |
| 20260507125217 | 11 | 248 | 1.6 | 8.0 | 0.00 | 0.00 | 0.00 | 49 | |
| 20260507124714 | 11 | 268 | 0.0 | 3.2 | 0.00 | 0.00 | 0.00 | 49 | |
| 20260507124211 | 11 | 236 | 0.0 | 3.2 | 0.00 | 0.00 | 0.00 | 51 | |
| 20260507123709 | 10 | 237 | 1.6 | 3.2 | 0.00 | 0.00 | 0.00 | 54 | |
| 20260507123206 | 10 | 247 | 1.6 | 3.2 | 0.00 | 0.00 | 0.00 | 56 | |
| 20260507122701 | 10 | 235 | 1.6 | 1.6 | 0.00 | 0.00 | 0.00 | 56 | |
| 20260507122157 | 9 | 261 | 0.0 | 3.2 | 0.00 | 0.00 | 0.00 | 57 | |
| 20260507121653 | 9 | 238 | 0.0 | 3.2 | 0.00 | 0.00 | 0.00 | 59 | |
| 20260507121149 | 8 | 248 | 1.6 | 3.2 | 0.00 | 0.00 | 0.00 | 60 | |
| 20260507120646 | 8 | 263 | 1.6 | 3.2 | 0.00 | 0.00 | 0.00 | 60 | |
| 20260507120142 | 8 | 317 | 1.6 | 3.2 | 0.00 | 0.00 | 0.00 | 61 | |
| 20260507115639 | 8 | 241 | 1.6 | 1.6 | 0.00 | 0.00 | 0.00 | 62 | |
| 20260507115134 | 7 | 239 | 0.0 | 1.6 | 0.00 | 0.00 | 0.00 | 65 | |
| 20260507114630 | 6 | 252 | 0.0 | 1.6 | 0.00 | 0.00 | 0.00 | 67 | |
| 20260507114128 | 6 | 265 | 1.6 | 1.6 | 0.00 | 0.00 | 0.00 | 69 | |
| 20260507113626 | 6 | 263 | 0.0 | 1.6 | 0.00 | 0.00 | 0.00 | 71 | |
| 20260507113122 | 5 | 264 | 0.0 | 0.0 | 0.00 | 0.00 | 0.00 | 72 | |
| 20260507112620 | 5 | 252 | 0.0 | 0.0 | 0.00 | 0.00 | 0.00 | 73 | |
| 20260507112116 | 5 | 239 | 0.0 | 0.0 | 0.00 | 0.00 | 0.00 | 73 | |
| 20260507111614 | 5 | 238 | 0.0 | 0.0 | 0.00 | 0.00 | 0.00 | 73 | |
| 20260507111110 | 5 | 238 | 0.0 | 0.0 | 0.00 | 0.00 | 0.00 | 73 | |
| 20260507110607 | 5 | 236 | 0.0 | 0.0 | 0.00 | 0.00 | 0.00 | 73 | |
| 20260507110103 | 5 | 235 | 0.0 | 0.0 | 0.00 | 0.00 | 0.00 | 73 | |
| 20260507105600 | 5 | 236 | 0.0 | 0.0 | 0.00 | 0.00 | 0.00 | 74 | |
| 20260507105056 | 5 | 236 | 0.0 | 0.0 | 0.00 | 0.00 | 0.00 | 74 | |
| 20260507104554 | 5 | 235 | 0.0 | 0.0 | 0.00 | 0.00 | 0.00 | 74 | |
| 20260507104050 | 5 | 235 | 0.0 | 0.0 | 0.00 | 0.00 | 0.00 | 74 | |
| 20260507103546 | 5 | 235 | 0.0 | 0.0 | 0.00 | 0.00 | 0.00 | 73 | |
| 20260507103043 | 5 | 233 | 0.0 | 1.6 | 0.00 | 0.00 | 0.00 | 73 | |
| 20260507102539 | 5 | 242 | 0.0 | 0.0 | 0.00 | 0.00 | 0.00 | 72 | |
| 20260507102036 | 5 | 250 | 0.0 | 0.0 | 0.00 | 0.00 | 0.00 | 70 | |
| 20260507101531 | 5 | 257 | 0.0 | 0.0 | 0.00 | 0.00 | 0.00 | 69 | |
| 20260507101028 | 5 | 268 | 0.0 | 1.6 | 0.00 | 0.00 | 0.00 | 69 | |
| 20260507100525 | 5 | 270 | 1.6 | 1.6 | 0.00 | 0.00 | 0.00 | 69 | |
| 20260507100023 | 5 | 270 | 0.0 | 1.6 | 0.00 | 0.00 | 0.00 | 68 | |
| 20260507095521 | 5 | 265 | 0.0 | 0.0 | 0.00 | 0.00 | 0.00 | 68 | |
| 20260507095017 | 5 | 255 | 0.0 | 0.0 | 0.00 | 0.00 | 0.00 | 68 | |
| 20260507094514 | 6 | 255 | 0.0 | 0.0 | 0.00 | 0.00 | 0.00 | 67 | |
| 20260507094011 | 6 | 267 | 0.0 | 0.0 | 0.00 | 0.00 | 0.00 | 67 | |
| 20260507093508 | 6 | 259 | 0.0 | 0.0 | 0.00 | 0.00 | 0.00 | 67 | |
| 20260507093007 | 5 | 244 | 0.0 | 0.0 | 0.00 | 0.00 | 0.00 | 66 | |
| 20260507092503 | 6 | 244 | 0.0 | 0.0 | 0.00 | 0.00 | 0.00 | 65 | |
| 20260507092000 | 6 | 242 | 0.0 | 0.0 | 0.00 | 0.00 | 0.00 | 64 | |
| 20260507091456 | 6 | 259 | 0.0 | 0.0 | 0.00 | 0.00 | 0.00 | 63 | |
| 20260507090952 | 6 | 261 | 0.0 | 0.0 | 0.00 | 0.00 | 0.00 | 62 | |
| 20260507090448 | 7 | 264 | 0.0 | 1.6 | 0.00 | 0.00 | 0.00 | 62 | |
| 20260507085945 | 7 | 256 | 0.0 | 0.0 | 0.00 | 0.00 | 0.00 | 62 | |
| 20260507085442 | 7 | 259 | 0.0 | 0.0 | 0.00 | 0.00 | 0.00 | 61 | |
| 20260507084939 | 7 | 261 | 0.0 | 0.0 | 0.00 | 0.00 | 0.00 | 61 | |
| 20260507084435 | 7 | 258 | 0.0 | 0.0 | 0.00 | 0.00 | 0.00 | 60 | |
| 20260507083933 | 7 | 254 | 0.0 | 0.0 | 0.00 | 0.00 | 0.00 | 60 | |
| 20260507083429 | 7 | 277 | 1.6 | 1.6 | 0.00 | 0.00 | 0.00 | 59 | |
| 20260507082925 | 7 | 262 | 0.0 | 1.6 | 0.00 | 0.00 | 0.00 | 59 | |
| 20260507082421 | 7 | 260 | 1.6 | 1.6 | 0.00 | 0.00 | 0.00 | 59 | |
| 20260507081918 | 7 | 254 | 1.6 | 1.6 | 0.00 | 0.00 | 0.00 | 59 | |
| 20260507081414 | 7 | 259 | 0.0 | 1.6 | 0.00 | 0.00 | 0.00 | 59 | |
| 20260507080911 | 7 | 289 | 0.0 | 3.2 | 0.00 | 0.00 | 0.00 | 59 | |
| 20260507080408 | 7 | 253 | 0.0 | 1.6 | 0.00 | 0.00 | 0.00 | 59 | |
| 20260507075903 | 7 | 263 | 0.0 | 1.6 | 0.00 | 0.00 | 0.00 | 59 | |
| 20260507075359 | 7 | 254 | 0.0 | 1.6 | 0.00 | 0.00 | 0.00 | 59 | |
| 20260507074856 | 7 | 252 | 0.0 | 1.6 | 0.00 | 0.00 | 0.00 | 59 | |
| 20260507074353 | 7 | 264 | 0.0 | 1.6 | 0.00 | 0.00 | 0.00 | 59 | |
| 20260507073850 | 7 | 254 | 0.0 | 1.6 | 0.00 | 0.00 | 0.00 | 59 | |
| 20260507073347 | 7 | 277 | 0.0 | 1.6 | 0.00 | 0.00 | 0.00 | 59 | |
| 20260507072844 | 7 | 258 | 0.0 | 1.6 | 0.00 | 0.00 | 0.00 | 59 | |
| 20260507072341 | 7 | 272 | 0.0 | 0.0 | 0.00 | 0.00 | 0.00 | 59 | |
| 20260507071839 | 7 | 288 | 0.0 | 1.6 | 0.00 | 0.00 | 0.00 | 59 | |
| 20260507071336 | 8 | 259 | 0.0 | 1.6 | 0.00 | 0.00 | 0.00 | 59 | |
| 20260507070832 | 8 | 256 | 0.0 | 1.6 | 0.00 | 0.00 | 0.00 | 58 | |
| 20260507070329 | 8 | 260 | 0.0 | 1.6 | 0.00 | 0.00 | 0.00 | 59 | |
| 20260507065826 | 8 | 300 | 1.6 | 3.2 | 0.00 | 0.00 | 0.00 | 59 | |
| 20260507065323 | 8 | 263 | 0.0 | 1.6 | 0.00 | 0.00 | 0.00 | 60 | |
| 20260507064820 | 8 | 265 | 0.0 | 1.6 | 0.00 | 0.00 | 0.00 | 60 | |
| 20260507064318 | 8 | 266 | 0.0 | 3.2 | 0.00 | 0.00 | 0.00 | 61 | |
| 20260507063816 | 8 | 270 | 0.0 | 1.6 | 0.00 | 0.00 | 0.00 | 61 | |
| 20260507063313 | 8 | 256 | 0.0 | 0.0 | 0.00 | 0.00 | 0.00 | 61 | |
| 20260507062809 | 8 | 253 | 0.0 | 1.6 | 0.00 | 0.00 | 0.00 | 61 | |
| 20260507062307 | 7 | 262 | 1.6 | 1.6 | 0.00 | 0.00 | 0.00 | 61 | |
| 20260507061805 | 8 | 258 | 0.0 | 1.6 | 0.00 | 0.00 | 0.00 | 61 | |
| 20260507061302 | 8 | 254 | 0.0 | 0.0 | 0.00 | 0.00 | 0.00 | 60 | |
| 20260507060800 | 8 | 255 | 0.0 | 0.0 | 0.00 | 0.00 | 0.00 | 61 | |
| 20260507060256 | 8 | 247 | 0.0 | 0.0 | 0.00 | 0.00 | 0.00 | 61 | |
| 20260507055753 | 8 | 246 | 0.0 | 0.0 | 0.00 | 0.00 | 0.00 | 60 | |
| 20260507055248 | 8 | 242 | 0.0 | 0.0 | 0.00 | 0.00 | 0.00 | 59 | |
| 20260507054745 | 8 | 242 | 0.0 | 0.0 | 0.00 | 0.00 | 0.00 | 58 | |
| 20260507054242 | 8 | 242 | 0.0 | 0.0 | 0.00 | 0.00 | 0.00 | 57 | |
| 20260507053739 | 8 | 244 | 0.0 | 0.0 | 0.00 | 0.00 | 0.00 | 56 | |
| 20260507053236 | 8 | 244 | 0.0 | 0.0 | 0.00 | 0.00 | 0.00 | 57 | |
| 20260507052735 | 8 | 255 | 0.0 | 0.0 | 0.00 | 0.00 | 0.00 | 56 | |
| 20260507052231 | 8 | 259 | 0.0 | 0.0 | 0.00 | 0.00 | 0.00 | 56 | |
| 20260507051730 | 8 | 239 | 0.0 | 0.0 | 0.00 | 0.00 | 0.00 | 54 | |
| 20260507051226 | 9 | 239 | 0.0 | 0.0 | 0.00 | 0.00 | 0.00 | 54 | |
| 20260507050723 | 9 | 239 | 0.0 | 0.0 | 0.00 | 0.00 | 0.00 | 54 | |
| 20260507050220 | 9 | 238 | 0.0 | 0.0 | 0.00 | 0.00 | 0.00 | 53 | |
| 20260507045716 | 9 | 238 | 0.0 | 0.0 | 0.00 | 0.00 | 0.00 | 52 | |
| 20260507045212 | 10 | 235 | 0.0 | 0.0 | 0.00 | 0.00 | 0.00 | 52 | |
| 20260507044710 | 10 | 257 | 0.0 | 0.0 | 0.00 | 0.00 | 0.00 | 52 | |
| 20260507044206 | 10 | 257 | 0.0 | 0.0 | 0.00 | 0.00 | 0.00 | 51 | |
| 20260507043703 | 10 | 250 | 0.0 | 1.6 | 0.00 | 0.00 | 0.00 | 52 | |
| 20260507043200 | 10 | 250 | 0.0 | 0.0 | 0.00 | 0.00 | 0.00 | 51 | |
| 20260507042656 | 10 | 258 | 0.0 | 0.0 | 0.00 | 0.00 | 0.00 | 51 | |
| 20260507042151 | 10 | 254 | 0.0 | 0.0 | 0.00 | 0.00 | 0.00 | 51 | |
| 20260507041648 | 10 | 257 | 0.0 | 0.0 | 0.00 | 0.00 | 0.00 | 51 | |
| 20260507041144 | 10 | 258 | 0.0 | 0.0 | 0.00 | 0.00 | 0.00 | 51 | |
| 20260507040642 | 10 | 252 | 0.0 | 1.6 | 0.00 | 0.00 | 0.00 | 51 | |
| 20260507040138 | 10 | 252 | 0.0 | 0.0 | 0.00 | 0.00 | 0.00 | 51 | |
| 20260507035634 | 10 | 254 | 0.0 | 0.0 | 0.00 | 0.00 | 0.00 | 51 | |
| 20260507035130 | 10 | 248 | 0.0 | 0.0 | 0.00 | 0.00 | 0.00 | 51 | |
| 20260507034627 | 10 | 252 | 0.0 | 0.0 | 0.00 | 0.00 | 0.00 | 50 | |
| 20260507034125 | 10 | 257 | 0.0 | 0.0 | 0.00 | 0.00 | 0.00 | 50 | |
| 20260507033623 | 10 | 244 | 0.0 | 3.2 | 0.00 | 0.00 | 0.00 | 51 | |
| 20260507033120 | 10 | 257 | 0.0 | 0.0 | 0.00 | 0.00 | 0.00 | 51 | |
| 20260507032617 | 10 | 262 | 0.0 | 1.6 | 0.00 | 0.00 | 0.00 | 51 | |
| 20260507032113 | 10 | 258 | 0.0 | 1.6 | 0.00 | 0.00 | 0.00 | 50 | |
| 20260507031610 | 10 | 248 | 0.0 | 1.6 | 0.00 | 0.00 | 0.00 | 50 | |
| 20260507031107 | 10 | 244 | 0.0 | 1.6 | 0.00 | 0.00 | 0.00 | 50 | |
| 20260507030603 | 10 | 263 | 0.0 | 1.6 | 0.00 | 0.00 | 0.00 | 50 | |
| 20260507030101 | 10 | 270 | 1.6 | 1.6 | 0.00 | 0.00 | 0.00 | 51 | |
| 20260507025558 | 10 | 259 | 0.0 | 1.6 | 0.00 | 0.00 | 0.00 | 51 | |
| 20260507025055 | 10 | 277 | 1.6 | 1.6 | 0.00 | 0.00 | 0.00 | 53 | |
| 20260507024553 | 10 | 238 | 0.0 | 0.0 | 0.00 | 0.00 | 0.00 | 54 | |
| 20260507024050 | 10 | 238 | 0.0 | 0.0 | 0.00 | 0.00 | 0.00 | 52 | |
| 20260507023545 | 10 | 237 | 0.0 | 0.0 | 0.00 | 0.00 | 0.00 | 52 | |
| 20260507023043 | 10 | 234 | 0.0 | 0.0 | 0.00 | 0.00 | 0.00 | 52 | |
| 20260507022540 | 10 | 234 | 0.0 | 0.0 | 0.00 | 0.00 | 0.00 | 51 | |
| 20260507022035 | 10 | 233 | 0.0 | 0.0 | 0.00 | 0.00 | 0.00 | 50 | |
| 20260507021531 | 10 | 235 | 0.0 | 0.0 | 0.00 | 0.00 | 0.00 | 50 | |
| 20260507021028 | 10 | 234 | 0.0 | 0.0 | 0.00 | 0.00 | 0.00 | 49 | |
| 20260507020526 | 10 | 228 | 0.0 | 1.6 | 0.00 | 0.00 | 0.00 | 49 | |
| 20260507020022 | 11 | 247 | 0.0 | 0.0 | 0.00 | 0.00 | 0.00 | 49 | |
| 20260507015520 | 11 | 254 | 0.0 | 0.0 | 0.00 | 0.00 | 0.00 | 48 | |
| 20260507015018 | 11 | 256 | 0.0 | 1.6 | 0.00 | 0.00 | 0.00 | 48 | |
| 20260507014514 | 11 | 261 | 0.0 | 1.6 | 0.00 | 0.00 | 0.00 | 48 | |
| 20260507014010 | 11 | 244 | 0.0 | 0.0 | 0.00 | 0.00 | 0.00 | 48 | |
| 20260507013507 | 11 | 257 | 0.0 | 0.0 | 0.00 | 0.00 | 0.00 | 47 | |
| 20260507013004 | 11 | 261 | 0.0 | 1.6 | 0.00 | 0.00 | 0.00 | 47 | |
| 20260507012501 | 11 | 257 | 0.0 | 0.0 | 0.00 | 0.00 | 0.00 | 48 | |
| 20260507011957 | 11 | 258 | 0.0 | 0.0 | 0.00 | 0.00 | 0.00 | 47 | |
| 20260507011455 | 11 | 258 | 0.0 | 0.0 | 0.00 | 0.00 | 0.00 | 48 | |
| 20260507010950 | 11 | 258 | 0.0 | 0.0 | 0.00 | 0.00 | 0.00 | 47 | |
| 20260507010445 | 11 | 253 | 0.0 | 0.0 | 0.00 | 0.00 | 0.00 | 47 | |
| 20260507005942 | 11 | 258 | 0.0 | 0.0 | 0.00 | 0.00 | 0.00 | 47 | |
| 20260507005439 | 11 | 266 | 0.0 | 1.6 | 0.00 | 0.00 | 0.00 | 46 | |
| 20260507004935 | 11 | 257 | 0.0 | 1.6 | 0.00 | 0.00 | 0.00 | 46 | |
| 20260507004432 | 11 | 255 | 0.0 | 0.0 | 0.00 | 0.00 | 0.00 | 46 | |
| 20260507003930 | 11 | 254 | 0.0 | 1.6 | 0.00 | 0.00 | 0.00 | 46 | |
| 20260507003425 | 11 | 253 | 0.0 | 1.6 | 0.00 | 0.00 | 0.00 | 44 | |
| 20260507002920 | 11 | 252 | 0.0 | 1.6 | 0.00 | 0.00 | 0.00 | 44 | |
| 20260507002417 | 12 | 252 | 0.0 | 0.0 | 0.00 | 0.00 | 0.00 | 44 | |
| 20260507001914 | 11 | 288 | 3.2 | 4.8 | 0.00 | 0.00 | 0.00 | 43 | |
| 20260507001410 | 12 | 265 | 0.0 | 1.6 | 0.00 | 0.00 | 0.00 | 44 | |
| 20260507000908 | 12 | 252 | 0.0 | 1.6 | 0.00 | 0.00 | 0.00 | 44 | |
| 20260507000405 | 12 | 270 | 1.6 | 3.2 | 0.00 | 0.00 | 0.00 | 43 | |
| 20260506235859 | 12 | 302 | 1.6 | 1.6 | 0.00 | 0.00 | 0.00 | 44 | |
| 20260506235357 | 12 | 264 | 0.0 | 3.2 | 0.00 | 0.00 | 0.00 | 44 | |
| 20260506234852 | 12 | 257 | 0.0 | 1.6 | 0.00 | 0.00 | 0.00 | 44 | |
| 20260506234350 | 12 | 249 | 0.0 | 3.2 | 0.00 | 0.00 | 0.00 | 44 | |
| 20260506233848 | 12 | 281 | 0.0 | 3.2 | 0.00 | 0.00 | 0.00 | 43 | |
| 20260506233343 | 12 | 287 | 1.6 | 3.2 | 0.00 | 0.00 | 0.00 | 42 | |
| 20260506232841 | 12 | 252 | 1.6 | 1.6 | 0.00 | 0.00 | 0.00 | 44 | |
| 20260506232336 | 12 | 261 | 0.0 | 1.6 | 0.00 | 0.00 | 0.00 | 43 | |
| 20260506231832 | 12 | 251 | 1.6 | 3.2 | 0.00 | 0.00 | 0.00 | 43 | |
| 20260506231331 | 12 | 294 | 1.6 | 4.8 | 0.00 | 0.00 | 0.00 | 44 | |
| 20260506230828 | 12 | 266 | 0.0 | 1.6 | 0.00 | 0.00 | 0.00 | 42 | |
| 20260506230325 | 12 | 300 | 3.2 | 4.8 | 0.00 | 0.00 | 0.00 | 42 | |
| 20260506225820 | 12 | 320 | 4.8 | 8.0 | 0.00 | 0.00 | 0.00 | 43 | |
| 20260506225318 | 12 | 262 | 3.2 | 9.7 | 0.00 | 0.00 | 0.00 | 42 | |
| 20260506224815 | 12 | 253 | 4.8 | 8.0 | 0.00 | 0.00 | 0.00 | 42 | |
| 20260506224312 | 13 | 283 | 1.6 | 1.6 | 0.00 | 0.00 | 0.00 | 42 | |
| 20260506223808 | 13 | 240 | 1.6 | 3.2 | 0.00 | 0.00 | 0.00 | 42 | |
| 20260506223303 | 12 | 258 | 0.0 | 8.0 | 0.00 | 0.00 | 0.00 | 42 | |
| 20260506222800 | 13 | 240 | 3.2 | 4.8 | 0.00 | 0.00 | 0.00 | 41 | |
| 20260506222255 | 13 | 323 | 6.4 | 8.0 | 0.00 | 0.00 | 0.00 | 40 | |
| 20260506221749 | 13 | 339 | 4.8 | 8.0 | 0.00 | 0.00 | 0.00 | 40 | |
| 20260506221246 | 13 | 340 | 4.8 | 11.3 | 0.00 | 0.00 | 0.00 | 41 | |
| 20260506220743 | 13 | 292 | 3.2 | 8.0 | 0.00 | 0.00 | 0.00 | 40 | |
| 20260506220238 | 13 | 313 | 3.2 | 9.7 | 0.00 | 0.00 | 0.00 | 41 | |
| 20260506215735 | 13 | 270 | 3.2 | 4.8 | 0.00 | 0.00 | 0.00 | 40 | |
| 20260506215231 | 13 | 247 | 0.0 | 3.2 | 0.00 | 0.00 | 0.00 | 41 | |
| 20260506214727 | 13 | 355 | 8.0 | 9.7 | 0.00 | 0.00 | 0.00 | 40 | |
| 20260506214225 | 14 | 252 | 3.2 | 4.8 | 0.00 | 0.00 | 0.00 | 41 | |
| 20260506213723 | 13 | 236 | 4.8 | 9.7 | 0.00 | 0.00 | 0.00 | 40 | |
| 20260506213220 | 12 | 355 | 8.0 | 9.7 | 0.00 | 0.00 | 0.00 | 40 | |
| 20260506212717 | 12 | 294 | 3.2 | 9.7 | 0.00 | 0.00 | 0.00 | 42 | |
| 20260506212212 | 12 | 252 | 3.2 | 4.8 | 0.00 | 0.00 | 0.00 | 42 | |
| 20260506211708 | 13 | 322 | 3.2 | 11.3 | 0.00 | 0.00 | 0.00 | 42 | |
| 20260506211204 | 13 | 267 | 1.6 | 4.8 | 0.00 | 0.00 | 0.00 | 43 | |
| 20260506210702 | 13 | 271 | 1.6 | 8.0 | 0.00 | 0.00 | 0.00 | 43 | |
| 20260506210158 | 13 | 319 | 6.4 | 8.0 | 0.00 | 0.00 | 0.00 | 40 | |
| 20260506205655 | 13 | 266 | 3.2 | 9.7 | 0.00 | 0.00 | 0.00 | 40 | |
| 20260506205150 | 12 | 239 | 1.6 | 8.0 | 0.00 | 0.00 | 0.00 | 43 | |
| 20260506204648 | 13 | 248 | 0.0 | 9.7 | 0.00 | 0.00 | 0.00 | 41 | |
| 20260506204145 | 12 | 294 | 1.6 | 8.0 | 0.00 | 0.00 | 0.00 | 42 | |
| 20260506203643 | 12 | 289 | 4.8 | 8.0 | 0.00 | 0.00 | 0.00 | 43 | |
| 20260506203140 | 12 | 280 | 4.8 | 11.3 | 0.00 | 0.00 | 0.00 | 43 | |
| 20260506202638 | 13 | 293 | 6.4 | 11.3 | 0.00 | 0.00 | 0.00 | 40 | |
| 20260506202133 | 13 | 300 | 3.2 | 8.0 | 0.00 | 0.00 | 0.00 | 40 | |
| 20260506201631 | 14 | 325 | 3.2 | 11.3 | 0.00 | 0.00 | 0.00 | 39 | |
| 20260506201127 | 14 | 316 | 4.8 | 9.7 | 0.00 | 0.00 | 0.00 | 40 | |
| 20260506200624 | 13 | 258 | 8.0 | 12.9 | 0.00 | 0.00 | 0.00 | 41 | |
| 20260506200120 | 13 | 322 | 1.6 | 4.8 | 0.00 | 0.00 | 0.00 | 42 | |
| 20260506195617 | 13 | 325 | 4.8 | 8.0 | 0.00 | 0.00 | 0.00 | 43 | |
| 20260506195113 | 12 | 335 | 6.4 | 9.7 | 0.00 | 0.00 | 0.00 | 41 | |
| 20260506194611 | 12 | 319 | 4.8 | 8.0 | 0.00 | 0.00 | 0.00 | 44 | |
| 20260506194107 | 12 | 296 | 3.2 | 4.8 | 0.00 | 0.00 | 0.00 | 44 | |
| 20260506193605 | 13 | 245 | 1.6 | 8.0 | 0.00 | 0.00 | 0.00 | 42 | |
| 20260506193102 | 12 | 297 | 4.8 | 8.0 | 0.00 | 0.00 | 0.00 | 44 | |
| 20260506192559 | 13 | 325 | 9.7 | 12.9 | 0.00 | 0.00 | 0.00 | 41 | |
| 20260506192054 | 13 | 321 | 6.4 | 8.0 | 0.00 | 0.00 | 0.00 | 41 |